Location: Bishop's University Astronomical Observatory
(45.3661°N, 71.8475°W)
Time: 07:38:09
(UTC-04:00)

CZ-4C R/B - Visible Passes

Search period start: 02 September 2014 00:00
Search period end: 12 September 2014 00:00
Orbit: 789 x 1213 km, 63.4° (Epoch: 31 August)

Date Brightness Start Highest point End Pass type
(mag) Time Alt. Az. Time Alt. Az. Time Alt. Az.
02 Sep 4.5 20:46:22 10° NW 20:52:16 30° WSW 20:58:31 10° S visible
03 Sep 5.2 21:21:57 10° WNW 21:25:19 14° WSW 21:28:47 10° SW visible
04 Sep 4.3 20:04:55 10° NW 20:11:09 35° WSW 20:17:46 10° S visible
05 Sep 5.2 20:39:57 10° WNW 20:44:17 17° WSW 20:48:46 10° SW visible
07 Sep 5.2 19:58:12 10° WNW 20:03:13 21° WSW 20:08:27 10° SSW visible
10 Sep 5.8 19:53:15 10° W 19:55:07 11° WSW 19:57:00 10° WSW visible
